Home   Weather   Kraków   Past weeks
Flag for Poland

Past Weather in Kraków, Poland — Yesterday and Last 2 Weeks

Now
37 °F

Passing clouds.


Feels Like: 34 °F
Forecast: 53 / 33 °F
Wind: 5 mph from Southwest

Location: Krakow Airport

Current Time: Apr 2, 2020 at 9:40:49 am

Latest Report: Apr 2, 2020 at 9:00 am


Visibility: N/A

Pressure: 29.98 "Hg

Humidity: 52%

Dew Point: 21 °F

Location of KrakówLocation

Past Weather in Kraków — Graph

°F

Kraków Temperature Yesterday

Maximum temperature yesterday: 45 °F (at 4:00 pm)
Minimum temperature yesterday: 21 °F (at 7:00 am)
Average temperature yesterday: 34 °F

High & Low Weather Summary for the Past Weeks

 TemperatureHumidityPressure
High66 °F (Mar 19, 1:30 pm)100% (Mar 19, 5:30 am)30.60 "Hg (Mar 19, 5:30 am)
Low21 °F (Apr 1, 7:00 am)24% (Mar 25, 3:00 pm)29.86 "Hg (Mar 29, 12:30 am)
Average39 °F60%30.25 "Hg
* Reported Mar 18 7:00 am — Apr 2 8:30 am, Kraków. Weather by CustomWeather, © 2020

Note: Actual official high and low records may vary slightly from our data, if they occured in-between our weather recording intervals... More about our weather records

Kraków Weather History for the Previous 24 Hours

Scroll right to see more
 ConditionsComfort  
Time TempWeatherWind HumidityBarometerVisibility
8:30 am
Thu, Apr 2
34 °FSunny.1 mph56%29.98 "Hg10 mi
8:00 am32 °FSunny.1 mph64%29.98 "Hg10 mi
7:30 am28 °FPassing clouds.3 mph74%29.98 "HgN/A
7:00 am25 °FSunny.2 mph74%29.98 "Hg10 mi
6:30 am23 °FSunny.1 mph80%29.98 "Hg10 mi
6:00 am23 °FClear.1 mph80%29.95 "Hg10 mi
5:30 am25 °FClear.1 mph80%29.95 "Hg10 mi
5:00 am25 °FClear.1 mph74%29.98 "Hg10 mi
4:30 am25 °FClear.1 mph80%29.98 "Hg10 mi
4:00 am25 °FClear.1 mph74%29.98 "Hg10 mi
3:30 am25 °FClear.1 mph74%29.98 "Hg10 mi
3:00 am27 °FClear.1 mph74%29.98 "Hg10 mi
2:30 am27 °FClear.1 mph74%29.98 "Hg10 mi
2:00 am27 °FClear.1 mph74%29.98 "Hg10 mi
1:30 am28 °FClear.1 mph69%30.01 "Hg10 mi
1:00 am27 °FClear.1 mph69%30.01 "Hg10 mi
12:30 am27 °FClear.2 mph69%30.01 "Hg10 mi
12:00 am28 °FClear.1 mph64%30.01 "Hg10 mi
11:30 pm
Wed, Apr 1
30 °FClear.1 mph59%30.01 "Hg10 mi
11:00 pm28 °FClear.2 mph64%30.01 "Hg10 mi
10:30 pm30 °FClear.2 mph59%30.01 "Hg10 mi
10:00 pm30 °FClear.3 mph59%30.01 "Hg10 mi
9:30 pm32 °FClear.3 mph55%30.04 "Hg10 mi
9:00 pm36 °FClear.5 mph48%30.04 "Hg10 mi
8:30 pm39 °FClear.5 mph39%30.04 "Hg10 mi
8:00 pm39 °FClear.5 mph39%30.04 "Hg10 mi
7:30 pm39 °FClear.8 mph39%30.01 "Hg10 mi
7:00 pm41 °FSunny.10 mph39%30.01 "Hg10 mi
6:30 pm43 °FSunny.13 mph36%30.04 "Hg10 mi
6:00 pm45 °FSunny.14 mph34%30.04 "Hg10 mi
5:30 pm45 °FSunny.15 mph37%30.04 "Hg10 mi
5:00 pm45 °FSunny.14 mph34%30.04 "Hg10 mi
4:30 pm45 °FPassing clouds.17 mph34%30.07 "HgN/A
4:00 pm45 °FSunny.16 mph37%30.07 "Hg10 mi
3:30 pm43 °FSunny.17 mph39%30.09 "Hg10 mi
3:00 pm43 °FSunny.18 mph39%30.09 "Hg10 mi
2:30 pm43 °FSunny.16 mph39%30.12 "Hg10 mi
2:00 pm43 °FPassing clouds.17 mph42%30.12 "HgN/A
1:30 pm43 °FPassing clouds.17 mph42%30.12 "HgN/A
1:00 pm41 °FPassing clouds.15 mph45%30.15 "HgN/A
12:30 pm39 °FSunny.14 mph45%30.18 "Hg10 mi
12:00 pm39 °FSunny.13 mph42%30.18 "Hg10 mi
11:30 am37 °FPassing clouds.10 mph48%30.18 "HgN/A
11:00 am37 °FPassing clouds.9 mph45%30.21 "HgN/A
10:30 am36 °FSunny.10 mph52%30.21 "Hg10 mi
10:00 am36 °FSunny.8 mph52%30.21 "Hg10 mi
9:30 am34 °FPassing clouds.7 mph60%30.21 "HgN/A
9:00 am30 °FClear.5 mph86%30.21 "Hg4 mi
Weather by CustomWeather, © 2020

See weather overview

Advertising